Temperature
20 19 19 19 18 18 18 17 17 17 16 16 16 15 15 15 15 15 15 15 15 15 14 14 14 14 14 14 14 14 14 14 14 14 14 14 14 14 14 14 14 14 13
20 19 19 18 18 18 18 17 17 17 16 16 16 15 15 15 15 15 15 15 15 15 14 14 14 14 14 14 14 14 14 14 14 14 14 14 14 14 14 14 14 14 13
19 19 19 18 18 17 17 17 17 17 16 16 16 15 15 15 15 15 15 15 14 14 14 14 14 14 14 14 13 13 13 14 14 14 14 14 14 13 14 14 14 13 13
19 19 18 18 18 17 17 17 17 16 16 16 16 15 15 15 15 15 14 14 14 14 14 14 14 14 13 13 13 13 13 13 13 13 13 13 14 13 13 13 13 13 13
19 19 18 17 17 17 17 17 17 16 16 16 16 15 15 15 15 15 14 14 14 14 14 14 14 13 13 13 13 13 13 13 13 13 13 13 13 13 13 13 13 13 13
19 18 18 17 17 17 17 16 16 16 16 16 15 15 15 15 15 15 14 14 14 14 14 14 13 13 13 13 13 13 13 13 13 13 13 13 13 13 13 13 13 13 13
19 18 17 17 16 16 16 16 16 16 16 16 15 15 15 15 15 14 14 14 14 14 14 13 13 13 13 13 13 13 13 13 12 12 12 13 13 13 13 12 12 12 13
19 18 17 17 16 16 16 16 16 16 16 16 15 15 15 14 14 14 14 14 14 14 14 13 13 13 13 13 13 12 12 12 12 12 12 12 12 12 12 12 12 12 12
19 18 17 17 16 16 16 16 16 16 15 15 15 15 15 14 14 14 14 14 14 14 14 13 13 13 13 13 12 12 12 12 12 12 12 12 12 12 12 12 12 11 11
19 18 17 17 16 16 16 16 16 15 15 15 15 15 14 14 14 14 14 14 14 13 13 13 13 13 13 12 12 12 12 12 12 12 12 12 12 12 12 12 12 11 11
19 18 17 16 16 16 15 15 15 15 15 15 14 14 14 14 14 14 13 13 13 13 13 13 13 12 12 12 12 12 12 12 12 12 12 11 11 11 11 11 11 11 11
18 18 17 16 16 16 15 15 15 15 15 14 14 14 14 14 14 13 13 13 13 13 13 12 12 12 12 12 12 12 12 12 12 11 11 11 11 11 11 11 11 11 11
18 17 17 16 16 16 15 15 15 15 14 14 14 14 14 13 13 13 13 13 13 13 12 12 12 12 12 11 11 11 11 11 11 11 11 11 11 11 11 11 10 10 10
18 17 16 16 16 15 15 15 15 14 14 14 13 13 13 13 13 12 12 12 12 12 12 12 12 11 11 11 11 11 11 11 11 11 11 11 11 10 10 10 10 10 10
17 17 16 16 16 15 15 15 15 14 14 13 13 13 13 12 12 12 12 12 12 11 11 11 11 11 11 11 11 11 11 11 10 10 10 10 10 10 10 10 10 10 9
17 16 16 15 15 15 15 15 14 14 14 13 13 13 12 12 12 12 11 11 11 11 11 11 11 11 11 11 11 10 10 10 10 10 10 10 10 10 10 10 9 9 9
16 16 15 15 15 15 14 14 14 14 13 13 12 12 12 12 11 11 11 11 11 11 11 11 11 11 10 10 10 10 10 10 10 10 10 9 9 9 9 9 9 9 9
16 15 15 15 15 14 14 14 13 13 13 13 12 12 11 11 11 11 11 10 10 10 10 10 10 10 10 10 10 10 10 9 9 9 9 9 9 9 9 9 9 9 9
15 15 15 14 14 14 13 13 13 13 12 12 12 11 11 11 10 10 10 10 10 10 10 9 10 10 10 10 10 9 9 9 9 9 9 9 9 8 8 8 8 8 8
15 14 14 14 14 13 13 13 12 12 12 11 11 11 10 10 10 10 10 10 9 9 9 9 9 9 9 9 9 9 9 9 9 9 8 8 8 8 8 8 8 7 8
14 14 14 13 13 13 13 12 12 12 11 11 11 10 10 10 10 9 9 9 9 9 8 8 8 8 8 8 8 8 8 8 8 8 8 8 8 8 7 7 7 7 7
14 13 13 13 13 12 12 12 12 11 11 11 10 10 10 9 9 9 9 8 8 8 8 8 8 8 8 8 8 8 7 7 7 7 7 7 7 7 7 7 7 7 7
13 13 12 12 12 12 12 11 11 11 11 10 10 10 10 9 9 9 8 8 8 8 7 7 7 7 7 7 7 7 7 7 7 7 7 7 6 6 7 6 6 6 6
12 12 12 12 11 11 11 11 11 10 10 10 10 10 9 9 9 8 8 8 7 7 7 7 7 7 7 7 7 7 7 7 7 6 6 6 6 6 6 6 6 6 6
12 12 11 11 11 11 11 11 10 10 10 10 9 9 9 8 8 8 8 7 7 7 7 7 7 7 7 7 6 6 6 6 6 6 6 6 6 6 6 6 6 5 5
11 11 11 11 10 10 10 10 10 9 9 9 9 8 8 8 8 7 7 7 7 7 7 7 6 6 6 6 6 6 6 5 5 5 5 5 5 5 5 5 5 5 5
Wind_Speed
6 7 6 5 5 5 5 6 6 5 4 3 2 2 1 1 2 2 3 3 4 4 4 2 2 2 2 1 2 2 2 1 1 2 2 2 1 2 2 1 2 2 3
6 6 6 5 4 4 5 6 6 5 5 4 3 2 2 2 2 1 2 2 2 2 3 2 1 1 2 2 2 1 1 1 1 1 1 2 2 3 1 1 1 2 2
6 5 4 4 4 3 3 3 4 5 5 4 3 2 2 1 2 1 1 1 3 3 3 2 1 1 1 1 1 1 1 1 2 1 1 0 1 2 2 1 1 1 2
6 6 4 3 3 3 3 3 4 5 4 4 3 3 3 2 2 2 2 1 2 2 2 1 1 1 1 1 0 1 1 1 2 2 2 1 0 1 1 2 1 1 1
6 6 5 4 3 3 3 3 4 4 4 4 3 3 2 2 2 2 3 2 1 1 1 1 1 1 1 1 1 1 1 1 1 1 2 2 2 1 0 2 2 2 1
7 6 6 5 4 4 2 2 3 3 4 4 4 3 3 3 2 2 2 2 1 1 1 1 0 1 1 1 1 1 1 1 2 2 1 1 1 2 1 1 2 2 2
6 6 6 5 4 3 2 2 3 3 4 4 3 3 2 2 3 2 2 2 2 1 1 1 0 1 1 1 1 1 1 1 1 2 2 2 2 1 1 2 2 2 2
6 6 6 5 4 4 3 2 2 2 3 4 3 3 3 2 2 2 2 2 2 2 2 2 1 1 1 1 1 1 1 1 1 2 1 2 2 2 2 1 1 3 3
6 6 6 5 4 4 3 2 3 3 2 3 2 3 3 2 2 2 2 1 1 1 2 2 1 1 1 1 1 0 1 1 1 1 1 1 1 2 2 2 1 0 2
5 6 6 5 4 4 4 3 3 3 2 2 1 2 2 2 2 2 2 2 2 1 2 2 2 1 1 1 1 1 1 1 1 1 1 1 1 1 1 1 2 1 1
5 5 5 5 5 4 3 3 3 3 3 3 2 1 2 2 2 1 2 2 2 2 2 2 2 1 1 1 1 0 0 0 1 1 1 1 1 1 1 1 1 1 1
4 4 4 4 4 4 4 4 3 3 2 3 3 1 1 1 1 0 0 2 2 2 1 2 2 1 1 1 1 1 0 0 1 1 2 2 1 1 1 1 1 1 2
3 4 4 3 3 4 4 4 3 4 3 2 2 2 2 1 1 1 0 1 1 1 1 1 2 1 1 1 0 1 1 1 1 1 1 2 1 2 2 2 1 2 2
2 3 3 3 3 3 3 3 3 4 4 3 2 2 2 1 1 1 1 1 1 1 1 1 1 2 2 1 1 1 1 1 2 2 1 1 0 1 2 2 2 2 2
1 1 2 2 3 3 3 3 4 4 4 3 3 2 2 2 1 1 0 1 0 0 1 1 1 1 2 1 1 1 2 2 2 2 2 1 1 2 2 2 2 2 2
0 0 1 1 2 2 2 2 3 4 4 4 3 3 2 2 1 1 0 0 0 0 0 0 1 1 1 1 1 2 2 2 2 2 2 2 1 3 3 4 4 3 2
1 1 1 1 1 1 1 1 2 2 3 4 3 3 3 2 1 1 1 0 0 0 0 0 0 1 2 2 1 2 2 2 2 2 1 2 2 3 2 3 4 4 5
1 1 1 1 1 1 2 2 1 2 2 3 4 3 2 2 2 1 1 1 0 0 0 1 1 0 2 2 1 2 2 3 2 2 1 1 1 3 3 3 3 3 4
0 1 1 1 1 2 2 2 1 1 2 3 3 3 3 3 2 2 1 1 0 0 1 1 1 0 1 2 1 1 2 2 3 2 2 1 1 4 5 3 3 4 4
1 1 0 1 1 1 2 2 2 2 2 2 2 2 2 2 2 2 1 0 0 1 1 1 1 1 1 1 1 1 1 2 3 2 2 2 3 4 4 2 2 4 5
1 1 0 0 0 1 2 2 2 2 2 2 2 2 2 2 2 2 1 0 0 0 1 1 1 0 1 1 0 0 0 2 3 3 2 2 4 5 5 4 3 5 5
1 1 0 0 1 1 1 1 1 1 3 3 2 2 2 2 2 2 1 0 0 1 1 1 1 1 0 1 1 2 2 3 2 3 3 3 4 5 5 4 5 7 6
1 1 1 1 1 2 2 1 0 2 2 3 2 2 2 2 2 2 2 1 1 1 1 1 1 1 1 1 2 2 4 5 3 3 5 6 6 5 4 5 5 4 3
2 2 1 1 1 1 1 1 1 2 2 2 2 1 2 2 1 1 1 1 1 1 1 1 1 1 0 1 1 2 3 4 4 4 5 6 6 4 4 4 3 3 3
2 2 2 2 2 1 2 2 3 2 2 2 2 2 2 2 1 1 1 2 2 2 2 1 1 1 1 1 1 1 2 2 3 4 3 2 2 2 2 2 2 2 2
2 2 1 2 2 2 2 2 2 3 2 2 2 2 2 2 2 2 1 1 2 4 4 3 2 2 2 2 2 3 4 4 4 3 3 3 3 3 3 3 3 2 3
Wind_Direction
148 143 142 141 145 148 148 141 145 149 134 127 122 125 126 109 87 78 63 61 63 63 72 53 61 69 69 54 36 48 14 343 355 26 350 338 31 83 82 66 56 67 72
134 133 146 144 153 155 151 153 152 151 139 138 147 147 143 143 128 92 64 70 77 75 78 67 49 76 65 40 20 36 11 332 353 15 5 357 349 360 53 65 47 42 56
133 125 131 140 145 143 151 155 151 141 139 135 132 134 134 134 116 131 141 72 65 62 65 66 60 72 79 64 13 42 21 311 315 11 52 79 270 308 314 15 59 41 35
133 127 119 114 138 146 150 163 158 147 142 141 148 156 148 154 164 165 155 138 95 84 74 65 87 88 67 86 345 31 341 355 326 329 335 323 143 157 309 321 349 46 48
132 130 126 119 105 118 147 159 150 142 139 140 166 176 161 173 165 148 144 162 162 113 82 54 73 59 39 50 23 24 1 353 344 328 325 328 332 299 164 296 311 332 327
126 129 124 116 102 88 88 137 148 145 150 163 174 170 180 174 157 154 162 171 155 162 127 78 55 80 46 47 24 4 25 340 344 338 338 339 341 328 331 294 290 296 291
136 134 124 122 119 116 112 122 136 153 168 172 168 167 183 176 164 157 170 175 169 164 175 132 246 76 60 49 58 14 351 342 2 351 342 339 325 340 2 359 324 325 306
146 140 135 141 144 138 139 145 147 152 168 172 179 172 167 166 165 176 170 176 188 176 157 151 157 114 103 74 75 23 350 346 353 334 340 340 338 357 8 21 0 339 327
145 142 144 150 149 151 160 168 161 162 162 171 173 165 173 156 176 182 166 160 150 142 134 137 131 126 119 113 102 78 331 350 332 308 314 324 327 342 350 4 24 47 316
141 141 146 151 155 167 176 176 169 169 160 142 171 170 163 165 171 176 159 151 161 159 154 153 151 150 129 107 92 102 328 44 356 335 345 339 330 345 355 360 355 357 273
139 145 150 152 155 160 169 172 176 171 165 156 146 153 165 162 166 177 163 150 149 156 149 150 151 149 138 137 113 128 360 37 349 337 333 316 328 346 318 316 307 301 291
144 145 145 141 155 168 175 177 172 164 169 159 147 143 148 124 142 150 125 134 141 164 154 142 132 121 118 123 136 195 261 274 309 306 315 308 328 319 298 284 269 276 266
149 148 144 159 174 181 183 179 169 159 161 145 139 132 105 107 152 120 49 99 124 145 158 145 142 136 128 107 246 213 232 262 268 260 276 296 328 311 314 313 299 287 285
116 143 152 163 179 180 179 171 161 151 156 152 156 147 136 124 93 97 101 109 103 144 163 170 171 157 132 99 356 318 264 273 280 282 268 289 328 302 302 304 297 293 291
74 113 158 177 185 188 192 173 160 159 164 168 163 148 133 119 97 76 47 87 107 234 177 173 146 130 121 84 1 302 299 287 293 296 289 290 324 339 340 333 320 306 286
293 147 192 177 199 198 185 166 167 168 169 163 148 139 135 129 123 115 86 328 201 220 59 298 140 122 127 110 27 336 282 265 265 283 302 314 315 350 343 341 343 333 303
305 271 260 232 238 221 166 132 151 155 156 143 135 136 138 144 144 131 105 237 266 12 25 268 232 165 155 130 62 328 302 273 263 266 298 309 332 339 316 308 317 323 314
326 269 259 255 239 137 116 117 123 151 148 143 148 153 156 156 159 156 165 203 198 94 281 280 299 250 165 128 73 316 283 276 288 298 310 311 321 330 326 302 303 299 303
343 306 306 322 70 93 120 127 123 144 154 144 145 154 162 164 172 183 188 153 357 285 267 251 264 254 157 127 106 27 297 302 305 311 319 316 294 326 335 329 310 302 297
30 321 333 60 95 107 124 136 153 152 148 136 137 147 162 171 174 162 156 157 189 245 264 267 252 186 157 140 130 111 291 303 300 305 305 307 315 323 329 303 293 292 293
21 347 23 102 172 140 139 174 184 181 148 125 124 132 146 159 155 134 130 156 205 270 274 267 278 187 135 85 71 76 273 299 302 298 299 298 318 324 320 310 282 286 297
348 346 47 234 124 115 135 215 219 150 123 126 136 151 136 158 162 138 149 161 260 259 261 279 315 333 97 88 335 316 311 320 300 302 301 297 305 301 301 295 295 303 310
307 297 254 222 175 166 184 208 173 116 124 139 149 161 144 126 148 158 165 178 219 235 251 262 266 295 356 20 4 326 318 327 317 304 314 311 305 304 290 287 297 303 303
284 269 230 208 234 210 162 137 127 133 155 168 171 167 143 129 119 161 164 174 193 215 253 258 258 268 322 30 6 323 312 323 318 313 312 314 306 296 290 297 293 282 284
280 257 231 225 227 209 158 152 154 170 187 187 180 166 144 145 172 169 193 190 194 187 204 238 243 266 258 279 308 303 290 294 295 313 313 311 314 306 302 296 289 289 293
267 247 242 236 227 206 171 165 169 181 190 195 189 171 161 175 190 186 222 232 209 191 189 195 214 247 255 295 295 294 298 302 311 320 298 292 286 279 285 288 288 288 288
Height
1520 1521 1523 1524 1526 1527 1528 1528 1529 1530 1531 1531 1532 1532 1533 1534 1535 1535 1535 1535 1535 1535 1536 1536 1536 1536 1536 1536 1536 1536 1536 1536 1536 1535 1534 1534 1534 1534 1534 1534 1533 1533 1532
1519 1520 1522 1523 1525 1526 1527 1527 1528 1529 1530 1530 1531 1532 1533 1534 1534 1534 1535 1535 1535 1535 1535 1535 1535 1536 1536 1535 1535 1535 1535 1535 1535 1535 1535 1535 1535 1534 1534 1533 1533 1533 1532
1517 1518 1520 1522 1523 1524 1525 1526 1527 1528 1529 1529 1530 1531 1532 1533 1533 1533 1534 1534 1534 1535 1535 1535 1535 1535 1535 1535 1535 1535 1535 1535 1535 1536 1536 1535 1535 1534 1534 1533 1533 1532 1532
1515 1517 1518 1520 1521 1522 1524 1525 1525 1526 1527 1528 1529 1530 1530 1531 1531 1532 1533 1533 1534 1534 1534 1534 1534 1535 1535 1535 1534 1534 1534 1534 1534 1535 1535 1536 1535 1535 1534 1534 1533 1532 1531
1514 1516 1517 1518 1520 1520 1522 1523 1524 1525 1526 1526 1527 1528 1529 1529 1530 1531 1531 1532 1532 1533 1533 1533 1534 1534 1534 1534 1534 1533 1533 1534 1534 1534 1534 1534 1534 1534 1534 1532 1532 1531 1531
1513 1515 1516 1518 1519 1519 1520 1521 1522 1523 1524 1525 1526 1527 1527 1528 1529 1529 1530 1531 1531 1532 1532 1532 1532 1532 1533 1533 1532 1532 1532 1533 1533 1533 1533 1533 1533 1533 1533 1532 1531 1530 1530
1512 1514 1515 1516 1517 1518 1519 1520 1521 1521 1522 1523 1524 1525 1526 1526 1527 1528 1528 1529 1530 1530 1530 1530 1531 1531 1531 1531 1531 1531 1531 1531 1532 1532 1532 1532 1532 1532 1532 1531 1530 1529 1528
1510 1512 1514 1515 1516 1517 1518 1518 1519 1520 1521 1521 1522 1523 1524 1525 1525 1526 1527 1528 1528 1528 1529 1529 1530 1530 1530 1530 1530 1530 1530 1530 1530 1531 1531 1531 1531 1531 1530 1530 1529 1528 1527
1509 1511 1513 1514 1515 1516 1516 1517 1518 1518 1519 1520 1521 1521 1522 1523 1524 1525 1525 1526 1526 1527 1527 1527 1528 1528 1529 1529 1528 1528 1528 1529 1529 1529 1529 1529 1529 1529 1529 1528 1528 1528 1526
1507 1509 1511 1512 1514 1515 1515 1516 1516 1517 1517 1518 1519 1520 1520 1521 1522 1523 1523 1524 1525 1525 1525 1526 1526 1527 1527 1527 1527 1527 1527 1527 1527 1527 1528 1528 1527 1527 1527 1526 1526 1526 1525
1506 1508 1510 1511 1512 1513 1514 1514 1515 1516 1516 1516 1517 1518 1518 1519 1520 1521 1521 1522 1522 1523 1524 1524 1524 1525 1525 1525 1525 1526 1526 1526 1526 1526 1526 1526 1526 1525 1524 1524 1524 1523 1523
1504 1506 1508 1509 1510 1511 1512 1513 1513 1513 1514 1515 1515 1516 1516 1517 1518 1518 1519 1520 1520 1521 1522 1522 1522 1523 1523 1523 1524 1524 1524 1524 1524 1524 1524 1524 1524 1523 1522 1522 1521 1521 1520
1503 1504 1506 1507 1508 1510 1510 1511 1511 1511 1512 1513 1513 1514 1514 1514 1515 1516 1516 1517 1518 1519 1519 1520 1520 1521 1521 1521 1522 1522 1522 1522 1522 1522 1522 1522 1521 1521 1520 1519 1519 1518 1517
1502 1503 1504 1505 1507 1508 1508 1509 1509 1510 1510 1511 1511 1512 1512 1512 1513 1513 1514 1515 1515 1516 1517 1517 1518 1518 1519 1519 1520 1520 1520 1520 1520 1520 1520 1519 1519 1518 1518 1517 1516 1515 1514
1501 1502 1503 1504 1505 1506 1506 1506 1507 1507 1508 1509 1509 1510 1510 1510 1511 1511 1512 1512 1513 1514 1514 1515 1515 1516 1516 1517 1517 1517 1518 1518 1518 1518 1517 1517 1516 1516 1515 1515 1514 1513 1512
1500 1501 1501 1502 1503 1503 1503 1504 1505 1505 1506 1507 1507 1508 1508 1508 1509 1509 1509 1510 1510 1511 1512 1512 1513 1513 1514 1514 1514 1514 1515 1515 1515 1515 1515 1514 1514 1513 1512 1512 1511 1510 1509
1498 1499 1500 1500 1501 1501 1501 1502 1503 1503 1504 1505 1505 1505 1506 1506 1506 1507 1507 1507 1507 1508 1509 1509 1510 1510 1511 1511 1511 1511 1512 1512 1512 1512 1511 1511 1511 1510 1509 1508 1507 1507 1506
1496 1497 1498 1498 1498 1499 1499 1500 1501 1501 1501 1502 1502 1503 1503 1504 1504 1504 1504 1505 1505 1505 1505 1506 1507 1507 1507 1508 1508 1508 1509 1509 1509 1508 1508 1508 1507 1506 1506 1505 1503 1503 1502
1494 1495 1495 1496 1496 1497 1497 1497 1498 1499 1499 1499 1500 1500 1501 1501 1502 1502 1502 1502 1502 1502 1503 1503 1503 1504 1504 1504 1505 1505 1505 1505 1505 1505 1505 1504 1504 1503 1502 1501 1500 1499 1498
1492 1492 1492 1493 1493 1494 1495 1495 1495 1496 1496 1497 1497 1498 1498 1499 1499 1499 1499 1500 1500 1500 1500 1500 1501 1502 1501 1501 1501 1502 1502 1502 1502 1501 1501 1500 1500 1499 1499 1498 1496 1495 1494
1489 1490 1490 1490 1491 1491 1492 1492 1493 1493 1494 1494 1495 1495 1496 1496 1496 1497 1497 1497 1497 1497 1497 1498 1498 1498 1499 1498 1498 1499 1498 1498 1498 1498 1497 1497 1496 1496 1495 1494 1493 1492 1491
1487 1487 1488 1488 1488 1488 1489 1489 1490 1490 1491 1491 1492 1493 1493 1493 1494 1494 1494 1495 1495 1495 1495 1494 1494 1495 1496 1496 1495 1496 1495 1495 1495 1494 1493 1493 1492 1492 1491 1490 1489 1489 1488
1484 1484 1485 1485 1485 1486 1486 1487 1487 1487 1488 1489 1489 1490 1490 1490 1491 1491 1491 1492 1492 1492 1492 1492 1492 1492 1492 1492 1492 1492 1492 1491 1491 1490 1490 1489 1489 1488 1487 1486 1485 1484 1483
1481 1482 1482 1482 1482 1483 1483 1484 1484 1485 1485 1486 1486 1487 1487 1487 1488 1488 1489 1489 1489 1489 1489 1489 1489 1489 1489 1489 1489 1488 1488 1488 1487 1486 1486 1485 1485 1484 1483 1482 1481 1480 1480
1478 1479 1479 1479 1479 1480 1480 1481 1481 1482 1482 1483 1483 1484 1484 1484 1484 1485 1486 1486 1486 1486 1486 1486 1486 1486 1486 1486 1486 1485 1484 1484 1483 1482 1482 1481 1480 1479 1479 1478 1477 1476 1476
1476 1475 1475 1476 1476 1476 1476 1477 1478 1478 1479 1479 1480 1480 1481 1481 1481 1482 1482 1483 1484 1484 1484 1484 1484 1483 1483 1483 1483 1482 1482 1481 1480 1479 1478 1477 1476 1475 1474 1474 1473 1472 1472